Location: Béaulencourt
(50.0796°N, 2.8795°E)
Time: 00:40:31
(UTC+00:00)

Thor Agena Rocket - Pass Details

Date: 20 January 2026
Orbit: 755 x 801 km, 99.1° (Epoch: 18 February)

Event Time Altitude Azimuth Distance (km) Brightness Sun altitude
Rises 06:12:14 0° 17° (NNE) 3,251 6.8 -13.3°
Reaches altitude 10° 06:14:33 10° 21° (NNE) 2,327 6.1 -12.9°
Maximum altitude 06:19:39 65° 103° (ESE) 855 4.0 -12.2°
Drops below altitude 10° 06:24:47 10° 186° (S) 2,340 6.2 -11.4°
Sets 06:27:08 0° 189° (S) 3,270 6.9 -11.0°
